HST 1 20580U 90037B 24352.88181239 .00008797 00000-0 36771-3 0 9998 2 20580 28.4662 190.8929 0001737 252.7651 107.2753 15.21817152705267 ISS (ZARYA) 1 25544U 98067A 24353.11480821 .00016510 00000-0 28923-3 0 9992 2 25544 51.6386 124.1069 0007476 354.2197 178.2061 15.50699795487076 CXO 1 25867U 99040B 24352.96810518 .00000410 00000-0 00000-0 0 9999 2 25867 45.4209 139.5472 8685624 305.3692 359.7996 0.37804484 15262